QPF
0.00 0.02 0.05 0.09 0.08 0.06 0.01 0.00 0.00 0.00 0.01 0.01 0.01 0.01 0.01 0.01 0.02 0.03 0.08 0.11 0.05 0.02 0.01 0.02 0.03 0.04 0.06 0.07 0.05 0.05 0.05 0.05 0.05 0.05 0.07 0.09 0.08 0.08 0.09 0.11 0.11 0.11 0.12 0.10 0.08 0.06 0.04 0.05 0.04
0.01 0.02 0.05 0.08 0.08 0.01 0.00 0.00 0.00 0.00 0.00 0.00 0.00 0.00 0.00 0.00 0.01 0.02 0.07 0.09 0.03 0.02 0.01 0.03 0.07 0.09 0.13 0.10 0.06 0.05 0.06 0.05 0.04 0.06 0.07 0.08 0.08 0.08 0.10 0.11 0.10 0.12 0.12 0.09 0.07 0.06 0.05 0.04 0.03
0.02 0.04 0.05 0.08 0.04 0.00 0.00 0.00 0.00 0.00 0.00 0.00 0.00 0.00 0.00 0.01 0.01 0.02 0.04 0.03 0.02 0.01 0.01 0.01 0.04 0.09 0.13 0.13 0.09 0.05 0.04 0.04 0.04 0.05 0.06 0.06 0.06 0.08 0.10 0.09 0.09 0.12 0.12 0.11 0.08 0.06 0.05 0.04 0.03
0.03 0.04 0.04 0.05 0.02 0.00 0.00 0.00 0.00 0.00 0.00 0.00 0.00 0.00 0.01 0.00 0.00 0.02 0.02 0.02 0.02 0.01 0.01 0.01 0.01 0.02 0.04 0.05 0.04 0.04 0.03 0.03 0.04 0.04 0.05 0.05 0.05 0.08 0.11 0.08 0.08 0.12 0.12 0.11 0.08 0.06 0.05 0.04 0.03
0.04 0.03 0.04 0.02 0.00 0.00 0.00 0.00 0.00 0.00 0.00 0.00 0.00 0.01 0.02 0.01 0.01 0.02 0.03 0.03 0.02 0.04 0.04 0.03 0.03 0.02 0.03 0.03 0.03 0.03 0.02 0.02 0.03 0.03 0.04 0.05 0.06 0.08 0.12 0.11 0.09 0.11 0.14 0.12 0.08 0.06 0.05 0.04 0.03
0.04 0.02 0.02 0.00 0.00 0.00 0.00 0.00 0.00 0.00 0.00 0.00 0.00 0.00 0.01 0.01 0.01 0.03 0.03 0.02 0.03 0.04 0.07 0.06 0.05 0.03 0.03 0.02 0.02 0.02 0.02 0.03 0.04 0.05 0.04 0.06 0.11 0.13 0.18 0.16 0.14 0.13 0.13 0.11 0.07 0.04 0.03 0.02 0.03
0.04 0.02 0.01 0.00 0.00 0.00 0.00 0.00 0.00 0.00 0.00 0.00 0.00 0.00 0.01 0.01 0.00 0.01 0.02 0.02 0.02 0.02 0.03 0.04 0.06 0.06 0.04 0.03 0.03 0.03 0.04 0.05 0.07 0.09 0.09 0.16 0.25 0.27 0.25 0.18 0.14 0.13 0.12 0.10 0.07 0.04 0.02 0.02 0.02
0.03 0.01 0.01 0.00 0.00 0.00 0.00 0.00 0.00 0.00 0.00 0.00 0.00 0.00 0.00 0.00 0.00 0.01 0.01 0.01 0.01 0.02 0.02 0.04 0.07 0.07 0.07 0.05 0.05 0.06 0.05 0.06 0.09 0.10 0.11 0.21 0.24 0.22 0.17 0.12 0.10 0.11 0.12 0.09 0.06 0.04 0.03 0.02 0.01
0.01 0.01 0.01 0.01 0.00 0.00 0.00 0.00 0.00 0.00 0.00 0.00 0.00 0.00 0.00 0.00 0.00 0.00 0.00 0.00 0.01 0.01 0.02 0.02 0.04 0.07 0.09 0.09 0.09 0.09 0.07 0.08 0.09 0.08 0.10 0.12 0.12 0.10 0.07 0.07 0.07 0.08 0.07 0.06 0.06 0.05 0.03 0.02 0.02
0.01 0.01 0.01 0.01 0.00 0.00 0.00 0.00 0.00 0.00 0.00 0.00 0.00 0.00 0.00 0.00 0.00 0.00 0.00 0.00 0.01 0.02 0.03 0.02 0.04 0.07 0.08 0.08 0.10 0.10 0.10 0.12 0.11 0.10 0.10 0.08 0.08 0.07 0.06 0.08 0.08 0.08 0.08 0.07 0.06 0.05 0.03 0.01 0.01
0.01 0.01 0.01 0.01 0.00 0.00 0.00 0.00 0.00 0.00 0.00 0.00 0.00 0.00 0.00 0.00 0.00 0.00 0.00 0.00 0.00 0.01 0.01 0.02 0.03 0.05 0.05 0.08 0.12 0.12 0.14 0.16 0.12 0.08 0.05 0.05 0.09 0.11 0.07 0.08 0.07 0.07 0.06 0.04 0.05 0.04 0.03 0.03 0.02
0.01 0.01 0.01 0.00 0.00 0.01 0.00 0.00 0.00 0.00 0.00 0.00 0.00 0.00 0.00 0.00 0.00 0.00 0.00 0.00 0.00 0.01 0.01 0.01 0.02 0.03 0.04 0.06 0.09 0.11 0.14 0.12 0.09 0.06 0.05 0.04 0.10 0.13 0.08 0.07 0.05 0.04 0.03 0.02 0.02 0.02 0.04 0.06 0.05
0.01 0.01 0.01 0.01 0.01 0.00 0.00 0.00 0.00 0.00 0.00 0.00 0.00 0.00 0.00 0.00 0.00 0.00 0.00 0.00 0.00 0.00 0.00 0.01 0.01 0.02 0.02 0.04 0.06 0.09 0.10 0.08 0.06 0.06 0.05 0.04 0.05 0.08 0.07 0.05 0.04 0.04 0.03 0.02 0.02 0.04 0.04 0.05 0.05
0.00 0.01 0.01 0.01 0.01 0.01 0.01 0.00 0.00 0.00 0.00 0.00 0.00 0.00 0.00 0.00 0.00 0.00 0.00 0.00 0.00 0.00 0.00 0.01 0.01 0.01 0.01 0.01 0.03 0.07 0.08 0.08 0.07 0.06 0.05 0.05 0.05 0.06 0.06 0.04 0.03 0.03 0.03 0.04 0.03 0.04 0.04 0.04 0.04
0.00 0.00 0.01 0.01 0.01 0.01 0.01 0.01 0.01 0.00 0.00 0.00 0.00 0.00 0.00 0.00 0.00 0.00 0.00 0.00 0.00 0.00 0.00 0.00 0.01 0.01 0.00 0.01 0.02 0.03 0.05 0.07 0.06 0.07 0.05 0.07 0.07 0.05 0.05 0.04 0.03 0.04 0.03 0.03 0.03 0.04 0.04 0.04 0.04
0.01 0.01 0.01 0.01 0.01 0.01 0.01 0.01 0.01 0.01 0.01 0.01 0.00 0.00 0.00 0.00 0.00 0.00 0.00 0.00 0.00 0.00 0.00 0.00 0.00 0.00 0.00 0.00 0.01 0.02 0.04 0.04 0.04 0.04 0.05 0.06 0.06 0.06 0.06 0.05 0.04 0.05 0.04 0.03 0.05 0.06 0.07 0.06 0.05
0.04 0.03 0.01 0.02 0.02 0.02 0.01 0.01 0.01 0.01 0.01 0.01 0.00 0.00 0.00 0.00 0.00 0.00 0.00 0.00 0.00 0.00 0.00 0.01 0.01 0.00 0.00 0.00 0.00 0.02 0.04 0.03 0.03 0.05 0.05 0.05 0.05 0.06 0.06 0.04 0.04 0.05 0.05 0.04 0.06 0.08 0.06 0.06 0.04
0.01 0.01 0.02 0.03 0.02 0.02 0.02 0.01 0.02 0.02 0.02 0.01 0.01 0.01 0.00 0.00 0.00 0.00 0.00 0.00 0.00 0.00 0.00 0.00 0.01 0.01 0.00 0.01 0.01 0.01 0.02 0.02 0.03 0.06 0.05 0.04 0.04 0.06 0.06 0.05 0.04 0.04 0.04 0.05 0.07 0.07 0.04 0.04 0.04
0.00 0.00 0.00 0.01 0.02 0.03 0.03 0.02 0.02 0.02 0.01 0.01 0.01 0.00 0.01 0.01 0.01 0.00 0.01 0.00 0.00 0.00 0.00 0.00 0.00 0.00 0.01 0.01 0.01 0.01 0.01 0.02 0.02 0.04 0.04 0.03 0.03 0.05 0.04 0.04 0.04 0.04 0.04 0.03 0.06 0.05 0.05 0.04 0.04
0.00 0.00 0.00 0.00 0.01 0.02 0.02 0.02 0.03 0.02 0.01 0.01 0.01 0.01 0.01 0.01 0.01 0.01 0.00 0.00 0.00 0.01 0.00 0.00 0.00 0.00 0.00 0.01 0.01 0.01 0.01 0.02 0.01 0.02 0.04 0.02 0.03 0.03 0.03 0.04 0.03 0.03 0.03 0.03 0.04 0.05 0.05 0.04 0.06
0.00 0.00 0.00 0.00 0.00 0.01 0.01 0.02 0.02 0.02 0.02 0.02 0.01 0.02 0.02 0.02 0.02 0.01 0.00 0.00 0.00 0.00 0.00 0.00 0.00 0.00 0.00 0.01 0.01 0.01 0.01 0.01 0.01 0.02 0.03 0.02 0.02 0.02 0.02 0.02 0.03 0.03 0.02 0.02 0.03 0.05 0.05 0.05 0.05
0.00 0.00 0.00 0.00 0.00 0.01 0.01 0.02 0.02 0.02 0.03 0.03 0.03 0.04 0.05 0.03 0.02 0.01 0.01 0.00 0.00 0.00 0.00 0.00 0.00 0.00 0.01 0.01 0.01 0.01 0.01 0.01 0.01 0.01 0.01 0.02 0.03 0.03 0.02 0.01 0.02 0.02 0.02 0.01 0.02 0.03 0.03 0.04 0.05
0.00 0.00 0.00 0.00 0.00 0.01 0.02 0.03 0.04 0.02 0.02 0.03 0.05 0.08 0.10 0.06 0.03 0.02 0.01 0.01 0.01 0.00 0.00 0.01 0.00 0.00 0.01 0.01 0.01 0.01 0.01 0.01 0.01 0.01 0.01 0.02 0.03 0.03 0.03 0.01 0.02 0.02 0.02 0.01 0.01 0.02 0.03 0.04 0.05
0.00 0.00 0.00 0.00 0.00 0.00 0.02 0.04 0.06 0.03 0.03 0.04 0.06 0.07 0.06 0.04 0.04 0.05 0.02 0.01 0.01 0.01 0.01 0.01 0.00 0.00 0.01 0.00 0.00 0.01 0.01 0.01 0.02 0.02 0.02 0.02 0.02 0.02 0.02 0.02 0.01 0.01 0.02 0.02 0.02 0.02 0.02 0.03 0.04
0.00 0.00 0.00 0.00 0.00 0.00 0.01 0.02 0.02 0.02 0.03 0.03 0.03 0.03 0.03 0.03 0.04 0.06 0.07 0.04 0.02 0.02 0.01 0.00 0.00 0.00 0.00 0.00 0.01 0.01 0.01 0.01 0.02 0.02 0.03 0.04 0.03 0.01 0.01 0.02 0.02 0.02 0.02 0.02 0.03 0.04 0.03 0.02 0.03
0.00 0.00 0.01 0.00 0.00 0.00 0.00 0.00 0.01 0.01 0.03 0.02 0.03 0.04 0.04 0.04 0.04 0.05 0.08 0.05 0.02 0.02 0.01 0.00 0.00 0.00 0.00 0.00 0.00 0.01 0.01 0.02 0.01 0.02 0.03 0.02 0.02 0.01 0.02 0.04 0.03 0.02 0.03 0.03 0.04 0.04 0.04 0.04 0.04
0.00 0.00 0.00 0.01 0.00 0.00 0.00 0.00 0.01 0.01 0.03 0.02 0.05 0.08 0.09 0.07 0.04 0.03 0.04 0.03 0.02 0.02 0.01 0.01 0.01 0.01 0.01 0.01 0.01 0.01 0.01 0.01 0.02 0.02 0.01 0.01 0.01 0.02 0.02 0.03 0.03 0.03 0.04 0.03 0.04 0.04 0.04 0.06 0.06
0.00 0.00 0.00 0.00 0.00 0.00 0.00 0.01 0.02 0.01 0.02 0.06 0.15 0.16 0.13 0.07 0.05 0.05 0.05 0.04 0.03 0.02 0.02 0.02 0.02 0.03 0.02 0.02 0.02 0.01 0.01 0.01 0.02 0.02 0.02 0.01 0.01 0.02 0.03 0.04 0.04 0.04 0.04 0.04 0.04 0.04 0.04 0.05 0.06
0.00 0.00 0.00 0.00 0.00 0.00 0.00 0.01 0.01 0.01 0.01 0.04 0.11 0.13 0.14 0.08 0.07 0.07 0.07 0.07 0.06 0.04 0.05 0.05 0.04 0.05 0.04 0.03 0.03 0.03 0.02 0.03 0.02 0.01 0.01 0.02 0.02 0.03 0.04 0.05 0.05 0.05 0.05 0.05 0.05 0.05 0.05 0.05 0.05
0.00 0.00 0.00 0.00 0.00 0.00 0.00 0.01 0.01 0.02 0.05 0.09 0.10 0.15 0.16 0.09 0.07 0.08 0.09 0.07 0.06 0.05 0.06 0.07 0.08 0.07 0.05 0.04 0.04 0.04 0.04 0.04 0.03 0.02 0.02 0.03 0.04 0.05 0.05 0.05 0.05 0.05 0.06 0.07 0.07 0.08 0.09 0.06 0.04
MSLP
1005.59 1006.72 1008.06 1009.41 1010.58 1011.42 1011.86 1011.89 1011.62 1011.20 1010.82 1010.60 1010.64 1010.92 1011.36 1011.85 1012.24 1012.44 1012.39 1012.12 1011.72 1011.30 1010.97 1010.81 1010.86 1011.09 1011.44 1011.81 1012.16 1012.42 1012.60 1012.72 1012.84 1012.99 1013.21 1013.49 1013.81 1014.13 1014.41 1014.61 1014.72 1014.76 1014.75 1014.74 1014.76 1014.82 1014.94 1015.10 1015.29
1006.08 1007.38 1008.81 1010.16 1011.25 1011.94 1012.18 1011.99 1011.50 1010.88 1010.31 1009.95 1009.87 1010.07 1010.48 1010.96 1011.39 1011.65 1011.71 1011.59 1011.34 1011.08 1010.89 1010.85 1010.99 1011.28 1011.64 1012.02 1012.34 1012.57 1012.72 1012.81 1012.89 1013.02 1013.22 1013.49 1013.80 1014.12 1014.40 1014.60 1014.72 1014.77 1014.78 1014.78 1014.81 1014.88 1014.99 1015.15 1015.33
1006.77 1008.20 1009.66 1010.96 1011.93 1012.45 1012.49 1012.11 1011.44 1010.67 1009.98 1009.52 1009.36 1009.49 1009.85 1010.31 1010.75 1011.06 1011.20 1011.18 1011.07 1010.94 1010.88 1010.95 1011.16 1011.48 1011.86 1012.22 1012.51 1012.71 1012.82 1012.88 1012.94 1013.04 1013.21 1013.45 1013.73 1014.02 1014.28 1014.47 1014.60 1014.66 1014.69 1014.73 1014.78 1014.88 1015.02 1015.19 1015.38
1007.54 1009.03 1010.47 1011.68 1012.50 1012.86 1012.74 1012.22 1011.45 1010.61 1009.87 1009.38 1009.18 1009.28 1009.59 1010.01 1010.43 1010.74 1010.92 1010.97 1010.94 1010.91 1010.95 1011.09 1011.35 1011.69 1012.06 1012.39 1012.65 1012.82 1012.91 1012.95 1013.00 1013.09 1013.23 1013.43 1013.68 1013.92 1014.14 1014.31 1014.43 1014.51 1014.58 1014.65 1014.76 1014.90 1015.07 1015.26 1015.47
1008.26 1009.73 1011.08 1012.15 1012.82 1013.04 1012.82 1012.25 1011.48 1010.67 1009.97 1009.52 1009.34 1009.42 1009.69 1010.06 1010.42 1010.70 1010.87 1010.94 1010.97 1011.00 1011.09 1011.27 1011.55 1011.88 1012.21 1012.51 1012.74 1012.89 1012.97 1013.02 1013.07 1013.16 1013.30 1013.48 1013.68 1013.89 1014.06 1014.21 1014.31 1014.40 1014.50 1014.62 1014.78 1014.97 1015.18 1015.40 1015.61
1008.77 1010.13 1011.33 1012.23 1012.75 1012.87 1012.62 1012.09 1011.41 1010.73 1010.17 1009.83 1009.71 1009.80 1010.05 1010.35 1010.65 1010.87 1011.00 1011.07 1011.11 1011.16 1011.28 1011.47 1011.73 1012.03 1012.32 1012.58 1012.78 1012.91 1013.00 1013.08 1013.16 1013.28 1013.43 1013.60 1013.78 1013.95 1014.09 1014.20 1014.29 1014.38 1014.51 1014.66 1014.86 1015.09 1015.34 1015.58 1015.80
1008.97 1010.14 1011.13 1011.84 1012.22 1012.28 1012.06 1011.65 1011.16 1010.69 1010.33 1010.15 1010.13 1010.27 1010.49 1010.74 1010.96 1011.12 1011.21 1011.26 1011.30 1011.37 1011.49 1011.67 1011.90 1012.15 1012.39 1012.60 1012.76 1012.89 1013.00 1013.11 1013.25 1013.41 1013.60 1013.79 1013.96 1014.10 1014.21 1014.29 1014.36 1014.45 1014.58 1014.77 1014.99 1015.25 1015.52 1015.76 1015.97
1008.84 1009.78 1010.52 1011.03 1011.29 1011.33 1011.18 1010.94 1010.67 1010.46 1010.34 1010.34 1010.45 1010.64 1010.86 1011.06 1011.22 1011.33 1011.39 1011.43 1011.48 1011.56 1011.69 1011.86 1012.06 1012.25 1012.44 1012.59 1012.72 1012.84 1012.97 1013.12 1013.31 1013.53 1013.76 1013.98 1014.16 1014.29 1014.38 1014.43 1014.48 1014.57 1014.70 1014.89 1015.13 1015.40 1015.67 1015.91 1016.10
1008.46 1009.13 1009.63 1009.95 1010.10 1010.13 1010.08 1010.02 1010.00 1010.03 1010.15 1010.34 1010.57 1010.80 1011.02 1011.20 1011.32 1011.39 1011.45 1011.51 1011.59 1011.71 1011.86 1012.03 1012.21 1012.36 1012.48 1012.58 1012.67 1012.78 1012.92 1013.10 1013.34 1013.61 1013.89 1014.13 1014.33 1014.46 1014.53 1014.57 1014.61 1014.68 1014.81 1015.00 1015.24 1015.51 1015.77 1015.99 1016.16
1007.97 1008.39 1008.65 1008.79 1008.85 1008.89 1008.94 1009.05 1009.24 1009.50 1009.81 1010.14 1010.46 1010.74 1010.95 1011.11 1011.21 1011.28 1011.36 1011.47 1011.61 1011.78 1011.98 1012.17 1012.34 1012.46 1012.54 1012.59 1012.64 1012.72 1012.85 1013.06 1013.32 1013.62 1013.92 1014.19 1014.40 1014.54 1014.61 1014.65 1014.68 1014.75 1014.87 1015.06 1015.30 1015.56 1015.80 1016.01 1016.15
1007.53 1007.74 1007.81 1007.80 1007.79 1007.82 1007.96 1008.20 1008.54 1008.96 1009.41 1009.83 1010.20 1010.49 1010.69 1010.83 1010.92 1011.02 1011.14 1011.31 1011.53 1011.78 1012.04 1012.27 1012.45 1012.55 1012.60 1012.61 1012.63 1012.68 1012.79 1012.98 1013.25 1013.55 1013.86 1014.14 1014.36 1014.50 1014.59 1014.63 1014.67 1014.75 1014.89 1015.08 1015.32 1015.57 1015.80 1015.99 1016.12
1007.30 1007.35 1007.27 1007.15 1007.07 1007.11 1007.28 1007.60 1008.04 1008.55 1009.05 1009.51 1009.88 1010.15 1010.33 1010.45 1010.55 1010.67 1010.84 1011.08 1011.38 1011.71 1012.03 1012.30 1012.50 1012.61 1012.65 1012.64 1012.62 1012.64 1012.72 1012.89 1013.13 1013.41 1013.71 1013.98 1014.20 1014.35 1014.46 1014.53 1014.60 1014.71 1014.87 1015.08 1015.32 1015.58 1015.81 1016.00 1016.12
1007.36 1007.29 1007.11 1006.91 1006.79 1006.81 1007.01 1007.35 1007.82 1008.34 1008.84 1009.27 1009.60 1009.83 1009.97 1010.07 1010.17 1010.32 1010.53 1010.83 1011.19 1011.57 1011.94 1012.25 1012.47 1012.60 1012.64 1012.62 1012.60 1012.60 1012.65 1012.78 1012.98 1013.23 1013.49 1013.74 1013.95 1014.12 1014.25 1014.36 1014.48 1014.64 1014.84 1015.08 1015.35 1015.62 1015.87 1016.06 1016.18
1007.72 1007.58 1007.32 1007.07 1006.91 1006.91 1007.09 1007.42 1007.86 1008.33 1008.78 1009.15 1009.41 1009.59 1009.69 1009.77 1009.87 1010.03 1010.27 1010.60 1010.98 1011.39 1011.77 1012.10 1012.34 1012.49 1012.55 1012.56 1012.54 1012.54 1012.58 1012.68 1012.83 1013.02 1013.24 1013.45 1013.66 1013.84 1014.01 1014.17 1014.36 1014.58 1014.84 1015.13 1015.44 1015.73 1015.99 1016.19 1016.33
1008.29 1008.08 1007.77 1007.48 1007.30 1007.27 1007.41 1007.69 1008.06 1008.45 1008.81 1009.10 1009.30 1009.42 1009.50 1009.57 1009.68 1009.85 1010.10 1010.42 1010.80 1011.18 1011.56 1011.88 1012.12 1012.29 1012.38 1012.43 1012.45 1012.47 1012.51 1012.58 1012.69 1012.84 1013.00 1013.18 1013.37 1013.56 1013.77 1014.00 1014.26 1014.55 1014.88 1015.22 1015.56 1015.88 1016.16 1016.38 1016.53
1008.91 1008.65 1008.31 1008.00 1007.79 1007.73 1007.82 1008.03 1008.30 1008.59 1008.85 1009.05 1009.19 1009.28 1009.36 1009.44 1009.57 1009.76 1010.01 1010.31 1010.65 1010.99 1011.31 1011.59 1011.83 1012.01 1012.14 1012.24 1012.32 1012.38 1012.44 1012.51 1012.60 1012.69 1012.81 1012.95 1013.12 1013.33 1013.57 1013.86 1014.19 1014.56 1014.94 1015.33 1015.70 1016.04 1016.33 1016.56 1016.73
1009.46 1009.15 1008.78 1008.46 1008.24 1008.16 1008.19 1008.31 1008.48 1008.65 1008.80 1008.92 1009.01 1009.10 1009.20 1009.33 1009.50 1009.72 1009.98 1010.26 1010.54 1010.81 1011.06 1011.29 1011.51 1011.70 1011.87 1012.04 1012.18 1012.30 1012.41 1012.48 1012.55 1012.61 1012.68 1012.78 1012.93 1013.15 1013.42 1013.76 1014.15 1014.57 1015.00 1015.42 1015.81 1016.16 1016.45 1016.69 1016.86
1009.83 1009.49 1009.12 1008.82 1008.60 1008.49 1008.47 1008.49 1008.53 1008.58 1008.61 1008.64 1008.69 1008.79 1008.93 1009.14 1009.40 1009.68 1009.96 1010.23 1010.47 1010.67 1010.85 1011.02 1011.21 1011.40 1011.62 1011.84 1012.06 1012.25 1012.40 1012.50 1012.55 1012.58 1012.61 1012.68 1012.81 1013.01 1013.31 1013.68 1014.11 1014.57 1015.03 1015.46 1015.85 1016.19 1016.47 1016.70 1016.88
1009.98 1009.65 1009.33 1009.07 1008.90 1008.78 1008.70 1008.61 1008.51 1008.40 1008.29 1008.22 1008.22 1008.32 1008.53 1008.83 1009.18 1009.56 1009.90 1010.19 1010.41 1010.57 1010.69 1010.81 1010.97 1011.16 1011.41 1011.69 1011.98 1012.23 1012.43 1012.55 1012.60 1012.60 1012.60 1012.63 1012.72 1012.92 1013.22 1013.61 1014.06 1014.53 1015.00 1015.43 1015.80 1016.11 1016.37 1016.58 1016.76
1009.94 1009.68 1009.46 1009.31 1009.21 1009.11 1008.97 1008.77 1008.50 1008.19 1007.90 1007.69 1007.62 1007.71 1007.96 1008.35 1008.83 1009.31 1009.75 1010.10 1010.34 1010.48 1010.58 1010.67 1010.80 1011.00 1011.28 1011.60 1011.94 1012.25 1012.48 1012.62 1012.67 1012.65 1012.61 1012.60 1012.67 1012.84 1013.13 1013.52 1013.97 1014.45 1014.90 1015.31 1015.65 1015.93 1016.15 1016.34 1016.52
1009.77 1009.66 1009.63 1009.65 1009.65 1009.60 1009.41 1009.07 1008.61 1008.08 1007.56 1007.16 1006.96 1006.99 1007.26 1007.73 1008.31 1008.92 1009.48 1009.91 1010.21 1010.38 1010.48 1010.57 1010.69 1010.90 1011.19 1011.55 1011.93 1012.27 1012.53 1012.68 1012.72 1012.68 1012.61 1012.57 1012.61 1012.76 1013.03 1013.41 1013.85 1014.31 1014.74 1015.12 1015.42 1015.65 1015.84 1016.01 1016.18
1009.57 1009.68 1009.90 1010.14 1010.30 1010.31 1010.08 1009.60 1008.92 1008.13 1007.35 1006.71 1006.33 1006.25 1006.49 1006.99 1007.66 1008.39 1009.06 1009.60 1009.98 1010.22 1010.35 1010.46 1010.60 1010.82 1011.12 1011.50 1011.90 1012.27 1012.54 1012.70 1012.73 1012.68 1012.59 1012.52 1012.53 1012.66 1012.91 1013.27 1013.69 1014.13 1014.53 1014.87 1015.13 1015.33 1015.49 1015.64 1015.80
1009.38 1009.79 1010.29 1010.79 1011.13 1011.21 1010.95 1010.33 1009.43 1008.36 1007.30 1006.39 1005.79 1005.56 1005.71 1006.20 1006.92 1007.73 1008.50 1009.15 1009.63 1009.94 1010.13 1010.28 1010.45 1010.68 1011.01 1011.40 1011.81 1012.19 1012.48 1012.64 1012.67 1012.61 1012.50 1012.42 1012.41 1012.52 1012.75 1013.09 1013.49 1013.90 1014.27 1014.58 1014.82 1014.99 1015.12 1015.25 1015.41
1009.25 1009.96 1010.76 1011.50 1012.02 1012.18 1011.89 1011.16 1010.05 1008.72 1007.37 1006.20 1005.36 1004.95 1004.99 1005.43 1006.14 1007.00 1007.84 1008.57 1009.13 1009.52 1009.78 1009.98 1010.18 1010.44 1010.78 1011.19 1011.61 1012.00 1012.29 1012.46 1012.50 1012.45 1012.34 1012.26 1012.24 1012.34 1012.55 1012.87 1013.24 1013.63 1013.98 1014.26 1014.47 1014.62 1014.74 1014.86 1015.02
1009.16 1010.13 1011.18 1012.14 1012.81 1013.04 1012.73 1011.89 1010.62 1009.09 1007.50 1006.10 1005.05 1004.47 1004.38 1004.72 1005.40 1006.25 1007.12 1007.90 1008.52 1008.97 1009.28 1009.52 1009.76 1010.05 1010.41 1010.83 1011.27 1011.67 1011.98 1012.17 1012.23 1012.19 1012.11 1012.03 1012.02 1012.11 1012.30 1012.60 1012.95 1013.31 1013.63 1013.89 1014.09 1014.22 1014.33 1014.45 1014.60
1009.08 1010.22 1011.45 1012.55 1013.31 1013.58 1013.26 1012.36 1010.99 1009.33 1007.60 1006.04 1004.84 1004.12 1003.91 1004.16 1004.76 1005.56 1006.41 1007.19 1007.82 1008.30 1008.65 1008.93 1009.20 1009.52 1009.90 1010.34 1010.79 1011.21 1011.55 1011.76 1011.86 1011.85 1011.80 1011.74 1011.74 1011.83 1012.01 1012.28 1012.61 1012.93 1013.23 1013.48 1013.65 1013.78 1013.89 1014.00 1014.15
1008.98 1010.20 1011.48 1012.62 1013.41 1013.68 1013.36 1012.45 1011.05 1009.35 1007.59 1005.99 1004.73 1003.93 1003.63 1003.79 1004.30 1005.02 1005.80 1006.53 1007.14 1007.61 1007.96 1008.25 1008.54 1008.88 1009.28 1009.73 1010.20 1010.65 1011.01 1011.27 1011.41 1011.45 1011.43 1011.41 1011.43 1011.52 1011.69 1011.93 1012.22 1012.52 1012.79 1013.01 1013.17 1013.29 1013.39 1013.50 1013.65
1008.87 1010.03 1011.25 1012.33 1013.07 1013.31 1012.99 1012.11 1010.78 1009.16 1007.48 1005.94 1004.72 1003.93 1003.60 1003.69 1004.10 1004.72 1005.39 1006.03 1006.56 1006.98 1007.30 1007.58 1007.87 1008.21 1008.61 1009.08 1009.56 1010.03 1010.42 1010.72 1010.90 1011.00 1011.03 1011.04 1011.09 1011.18 1011.35 1011.57 1011.82 1012.08 1012.32 1012.51 1012.66 1012.77 1012.87 1012.97 1013.11
1008.80 1009.79 1010.84 1011.77 1012.38 1012.57 1012.25 1011.45 1010.25 1008.81 1007.32 1005.96 1004.88 1004.17 1003.86 1003.91 1004.24 1004.73 1005.26 1005.77 1006.18 1006.51 1006.77 1007.00 1007.26 1007.59 1007.98 1008.44 1008.93 1009.40 1009.82 1010.15 1010.37 1010.51 1010.60 1010.66 1010.73 1010.84 1011.00 1011.20 1011.43 1011.65 1011.86 1012.02 1012.15 1012.25 1012.35 1012.45 1012.58
1008.82 1009.59 1010.40 1011.11 1011.56 1011.66 1011.36 1010.66 1009.65 1008.46 1007.24 1006.13 1005.26 1004.70 1004.45 1004.48 1004.72 1005.08 1005.46 1005.80 1006.08 1006.28 1006.45 1006.61 1006.82 1007.10 1007.46 1007.89 1008.36 1008.82 1009.24 1009.58 1009.84 1010.02 1010.15 1010.25 1010.36 1010.50 1010.67 1010.86 1011.07 1011.27 1011.45 1011.59 1011.70 1011.79 1011.88 1011.98 1012.12
Thickness
5842 5838 5833 5818 5794 5772 5770 5784 5792 5791 5790 5796 5799 5792 5780 5771 5760 5749 5770 5776 5776 5774 5773 5772 5771 5771 5771 5771 5771 5771 5771 5771 5770 5770 5770 5769 5768 5767 5767 5766 5765 5764 5764 5763 5763 5762 5761 5761 5760
5846 5840 5828 5809 5780 5757 5769 5789 5791 5794 5798 5803 5799 5792 5782 5773 5777 5772 5773 5776 5776 5774 5773 5771 5770 5770 5770 5770 5770 5770 5769 5769 5769 5768 5768 5768 5767 5766 5765 5764 5764 5763 5762 5762 5761 5760 5760 5759 5758
5849 5843 5819 5797 5779 5769 5777 5794 5799 5804 5809 5806 5796 5794 5785 5776 5779 5776 5778 5778 5776 5774 5773 5772 5771 5770 5769 5769 5769 5768 5768 5768 5768 5767 5767 5766 5766 5765 5764 5763 5763 5762 5761 5760 5759 5759 5759 5757 5757
5848 5831 5815 5792 5782 5796 5801 5804 5809 5805 5805 5806 5798 5786 5788 5792 5788 5784 5782 5779 5776 5774 5773 5772 5771 5770 5769 5769 5768 5768 5767 5767 5767 5767 5766 5765 5764 5764 5763 5762 5761 5761 5760 5759 5758 5757 5757 5756 5755
5847 5823 5799 5786 5793 5809 5817 5819 5817 5806 5801 5800 5797 5781 5779 5792 5794 5788 5783 5779 5776 5773 5773 5772 5771 5770 5769 5768 5768 5768 5767 5767 5767 5767 5766 5765 5764 5763 5762 5761 5761 5760 5759 5758 5757 5756 5756 5755 5755
5834 5818 5789 5781 5798 5814 5821 5826 5820 5807 5800 5799 5794 5782 5779 5792 5790 5787 5784 5780 5778 5776 5774 5772 5771 5770 5769 5768 5768 5767 5767 5767 5767 5767 5765 5764 5763 5762 5761 5760 5760 5759 5759 5757 5757 5756 5755 5755 5754
5829 5811 5795 5797 5802 5809 5820 5829 5821 5809 5802 5802 5802 5783 5781 5788 5792 5790 5786 5781 5779 5777 5774 5772 5771 5770 5768 5768 5767 5767 5766 5766 5766 5765 5763 5762 5762 5761 5760 5760 5759 5759 5758 5757 5756 5756 5755 5754 5754
5846 5820 5804 5804 5805 5809 5827 5832 5829 5819 5810 5816 5810 5788 5780 5790 5796 5791 5786 5781 5778 5776 5774 5772 5771 5770 5768 5768 5767 5766 5765 5765 5764 5763 5762 5761 5760 5760 5759 5759 5759 5758 5757 5757 5756 5755 5755 5754 5754
5857 5814 5799 5809 5813 5817 5832 5829 5829 5832 5821 5816 5815 5806 5803 5803 5798 5789 5782 5777 5775 5774 5773 5772 5771 5770 5769 5768 5767 5766 5765 5764 5763 5762 5761 5760 5759 5759 5759 5758 5758 5757 5757 5756 5755 5755 5754 5754 5754
5845 5811 5817 5835 5837 5832 5836 5833 5830 5821 5811 5807 5808 5810 5810 5805 5797 5788 5781 5776 5774 5773 5773 5773 5772 5770 5769 5768 5767 5765 5764 5763 5762 5762 5761 5760 5759 5759 5758 5758 5757 5757 5757 5756 5755 5754 5754 5753 5753
5849 5831 5841 5847 5851 5847 5838 5836 5837 5820 5805 5808 5806 5806 5807 5803 5797 5791 5786 5783 5780 5779 5777 5776 5774 5772 5770 5769 5767 5765 5764 5763 5762 5761 5761 5760 5759 5758 5758 5758 5757 5756 5756 5755 5755 5754 5753 5753 5752
5850 5852 5856 5853 5856 5849 5842 5839 5833 5828 5822 5828 5824 5819 5811 5803 5798 5795 5790 5788 5785 5782 5781 5779 5778 5775 5773 5771 5768 5766 5764 5763 5763 5762 5761 5760 5759 5759 5758 5758 5757 5756 5756 5755 5754 5754 5753 5753 5752
5851 5852 5860 5860 5857 5853 5850 5841 5836 5831 5836 5834 5828 5821 5814 5807 5804 5802 5799 5795 5790 5785 5783 5782 5781 5778 5776 5772 5770 5768 5767 5766 5765 5764 5762 5761 5760 5760 5759 5758 5757 5756 5755 5755 5754 5754 5753 5753 5753
5854 5857 5857 5857 5854 5851 5843 5839 5835 5831 5838 5831 5825 5819 5816 5811 5808 5803 5799 5795 5792 5790 5787 5785 5783 5781 5778 5775 5772 5771 5769 5768 5766 5765 5764 5763 5762 5761 5760 5759 5757 5756 5756 5756 5755 5754 5754 5753 5754
5861 5847 5846 5850 5850 5847 5842 5824 5829 5836 5836 5828 5825 5822 5819 5816 5812 5807 5804 5800 5797 5794 5791 5788 5786 5784 5780 5777 5775 5773 5771 5769 5768 5767 5766 5765 5764 5763 5761 5760 5759 5758 5758 5757 5756 5755 5754 5753 5754
5848 5831 5820 5838 5847 5847 5832 5806 5831 5839 5832 5824 5825 5824 5819 5817 5816 5814 5811 5806 5803 5798 5794 5792 5790 5786 5782 5780 5777 5775 5773 5772 5770 5769 5768 5767 5766 5765 5763 5761 5760 5760 5759 5758 5756 5755 5754 5753 5752
5822 5808 5812 5828 5845 5844 5829 5813 5833 5841 5833 5825 5826 5825 5820 5816 5816 5817 5815 5811 5807 5803 5798 5794 5792 5788 5785 5782 5779 5777 5775 5773 5772 5771 5770 5769 5768 5766 5764 5763 5762 5761 5760 5759 5758 5755 5754 5751 5752
5805 5809 5813 5819 5839 5840 5827 5822 5834 5839 5835 5828 5828 5827 5822 5819 5819 5820 5819 5816 5811 5807 5803 5798 5794 5791 5788 5784 5780 5777 5775 5774 5774 5772 5771 5770 5769 5767 5765 5763 5763 5761 5759 5757 5757 5755 5754 5753 5752
5826 5818 5814 5827 5844 5835 5825 5823 5830 5835 5832 5829 5826 5825 5824 5823 5825 5824 5822 5818 5813 5808 5804 5800 5796 5793 5790 5785 5780 5776 5773 5774 5774 5774 5773 5771 5770 5768 5767 5765 5763 5761 5759 5757 5757 5755 5753 5751 5751
5828 5815 5815 5828 5843 5833 5822 5820 5830 5835 5834 5835 5831 5828 5827 5824 5823 5823 5821 5818 5814 5810 5807 5803 5800 5797 5794 5790 5786 5782 5779 5777 5776 5776 5774 5773 5771 5769 5768 5765 5763 5762 5759 5757 5756 5754 5751 5750 5750
5824 5818 5818 5820 5831 5830 5820 5809 5818 5831 5837 5838 5838 5835 5833 5831 5826 5824 5822 5820 5817 5813 5811 5809 5804 5801 5798 5794 5789 5785 5780 5777 5775 5774 5774 5774 5772 5770 5768 5767 5764 5762 5760 5757 5756 5754 5751 5747 5748
5816 5837 5835 5828 5810 5798 5807 5777 5804 5819 5824 5831 5833 5833 5833 5835 5833 5828 5826 5822 5820 5818 5817 5813 5808 5804 5800 5797 5791 5786 5780 5775 5776 5776 5775 5775 5773 5771 5769 5767 5765 5763 5761 5759 5757 5757 5754 5750 5746
5832 5847 5837 5827 5808 5792 5797 5782 5792 5813 5811 5823 5832 5836 5838 5837 5836 5833 5830 5828 5825 5823 5819 5815 5810 5806 5802 5799 5794 5789 5785 5782 5780 5778 5776 5775 5774 5773 5771 5768 5766 5764 5761 5760 5758 5757 5755 5753 5749
5845 5834 5821 5806 5789 5770 5789 5782 5782 5803 5815 5825 5835 5840 5840 5839 5838 5836 5834 5830 5826 5824 5820 5816 5810 5806 5804 5800 5796 5792 5788 5784 5780 5777 5775 5774 5773 5772 5771 5770 5767 5765 5762 5760 5759 5757 5755 5753 5751
5830 5797 5768 5763 5752 5760 5789 5783 5787 5821 5834 5836 5838 5840 5842 5842 5838 5834 5830 5827 5825 5822 5820 5816 5811 5806 5804 5801 5797 5794 5791 5787 5782 5779 5777 5774 5772 5771 5771 5770 5768 5765 5763 5761 5759 5757 5755 5753 5751
5819 5797 5764 5749 5745 5758 5779 5776 5799 5833 5842 5844 5844 5843 5843 5842 5839 5836 5834 5831 5827 5824 5820 5816 5812 5808 5805 5802 5799 5796 5792 5789 5785 5783 5780 5777 5775 5773 5773 5771 5768 5766 5764 5762 5759 5756 5754 5753 5751
5815 5803 5798 5770 5761 5751 5761 5782 5807 5828 5830 5835 5837 5836 5836 5838 5838 5834 5833 5832 5829 5825 5822 5819 5813 5809 5806 5803 5799 5795 5792 5789 5786 5784 5781 5779 5776 5775 5773 5770 5768 5765 5763 5761 5758 5755 5753 5752 5750
5828 5815 5784 5765 5746 5738 5753 5768 5778 5802 5810 5821 5825 5828 5830 5833 5833 5832 5831 5830 5828 5826 5822 5819 5815 5811 5807 5804 5800 5796 5792 5790 5788 5784 5781 5778 5776 5774 5772 5769 5767 5765 5762 5760 5757 5754 5752 5750 5748
5810 5804 5786 5765 5759 5741 5736 5757 5802 5805 5811 5814 5819 5824 5828 5829 5829 5828 5829 5829 5826 5823 5818 5815 5812 5808 5805 5802 5799 5796 5792 5790 5787 5784 5781 5779 5776 5774 5772 5769 5766 5763 5760 5758 5755 5752 5750 5748 5746
5813 5803 5784 5763 5757 5751 5743 5758 5810 5811 5814 5815 5817 5821 5825 5826 5823 5822 5824 5822 5819 5816 5813 5811 5808 5805 5803 5801 5798 5795 5792 5789 5786 5783 5781 5779 5776 5774 5772 5769 5765 5762 5759 5756 5754 5750 5748 5746 5743